BEL9AN EBBR-EPWA

Flight info

Callsign BEL9AN
Flight time N/A
Altitude 19000
Route LNO M170 KENUM/N0450F370 N853 ONUNE DCT LARBU DCT SUBIX DCT MOLIL DCT VEMAL DCT BIMPA
Aircraft A319/M-SDE3FGHIRWY/LB1

Departure

Time 2026-05-06 17:36
Airport Brussels Airport (EBBR)

Arrival

Time N/A
Airport Warsaw Chopin Airport (EPWA)
Time Latitude Longitude Altitude Speed Heading
2026-05-06 16:42 50.90267 4.48515 118 ft 0 kts 335°
2026-05-06 17:19 50.90266 4.48515 121 ft 1 kts 335°
2026-05-06 17:20 50.90245 4.48530 119 ft 4 kts 336°
2026-05-06 17:20 50.90220 4.48547 118 ft 4 kts 340°
2026-05-06 17:20 50.90194 4.48558 121 ft 4 kts
2026-05-06 17:20 50.90179 4.48549 121 ft 0 kts 65°
2026-05-06 17:26 50.90182 4.48560 122 ft 4 kts 66°
2026-05-06 17:27 50.90201 4.48628 121 ft 10 kts 66°
2026-05-06 17:27 50.90237 4.48760 124 ft 16 kts 67°
2026-05-06 17:27 50.90292 4.48946 124 ft 20 kts 64°
2026-05-06 17:27 50.90351 4.49149 125 ft 21 kts 66°
2026-05-06 17:28 50.90401 4.49328 123 ft 14 kts 65°
2026-05-06 17:28 50.90387 4.49443 122 ft 11 kts 176°
2026-05-06 17:28 50.90313 4.49417 125 ft 11 kts 196°
2026-05-06 17:28 50.90247 4.49389 127 ft 9 kts 195°
2026-05-06 17:29 50.90171 4.49358 142 ft 17 kts 194°
2026-05-06 17:29 50.90028 4.49301 131 ft 22 kts 194°
2026-05-06 17:29 50.89890 4.49244 138 ft 19 kts 194°
2026-05-06 17:29 50.89777 4.49198 145 ft 15 kts 194°
2026-05-06 17:30 50.89661 4.49151 151 ft 20 kts 198°
2026-05-06 17:30 50.89545 4.49053 156 ft 18 kts 191°
2026-05-06 17:30 50.89432 4.49013 160 ft 16 kts 194°
2026-05-06 17:30 50.89333 4.48973 164 ft 13 kts 201°
2026-05-06 17:31 50.89289 4.48869 165 ft 12 kts 248°
2026-05-06 17:31 50.89256 4.48732 164 ft 14 kts 250°
2026-05-06 17:31 50.89220 4.48585 164 ft 15 kts 249°
2026-05-06 17:31 50.89183 4.48431 165 ft 15 kts 252°
2026-05-06 17:32 50.89150 4.48267 164 ft 16 kts 249°
2026-05-06 17:32 50.89110 4.48098 164 ft 17 kts 250°
2026-05-06 17:32 50.89068 4.47929 164 ft 10 kts 233°
2026-05-06 17:32 50.89065 4.47924 164 ft 0 kts 229°
2026-05-06 17:34 50.89062 4.47919 165 ft 2 kts 227°
2026-05-06 17:34 50.89046 4.47903 166 ft 3 kts 207°
2026-05-06 17:34 50.88991 4.47910 172 ft 13 kts 159°
2026-05-06 17:34 50.88941 4.47982 178 ft 8 kts 117°
2026-05-06 17:35 50.88929 4.48064 179 ft 11 kts 89°
2026-05-06 17:35 50.88938 4.48155 179 ft 16 kts 77°
2026-05-06 17:35 50.88970 4.48327 178 ft 17 kts 69°
2026-05-06 17:36 50.89304 4.49772 178 ft 139 kts 69°
2026-05-06 17:36 50.89700 4.51345 641 ft 157 kts 66°
2026-05-06 17:36 50.90150 4.52936 1504 ft 158 kts 63°
2026-05-06 17:36 50.90639 4.54508 2241 ft 166 kts 61°
2026-05-06 17:37 50.91192 4.56252 2678 ft 190 kts 61°
2026-05-06 17:37 50.91827 4.58245 3186 ft 215 kts 62°
2026-05-06 17:37 50.92539 4.60482 3762 ft 240 kts 61°
2026-05-06 17:37 50.93320 4.62931 4527 ft 256 kts 61°
2026-05-06 17:38 50.93998 4.65591 5466 ft 267 kts 72°
2026-05-06 17:38 50.94080 4.68584 6109 ft 280 kts 100°
2026-05-06 17:38 50.93590 4.71566 7201 ft 280 kts 103°
2026-05-06 17:38 50.93094 4.74575 8239 ft 283 kts 103°
2026-05-06 17:39 50.92602 4.77619 9259 ft 287 kts 103°
2026-05-06 17:39 50.92104 4.80717 10179 ft 294 kts 103°
2026-05-06 17:39 50.91580 4.83985 10589 ft 318 kts 103°
2026-05-06 17:39 50.91010 4.87511 10962 ft 341 kts 103°
2026-05-06 17:40 50.90407 4.91201 11639 ft 351 kts 104°
2026-05-06 17:40 50.89785 4.94969 12455 ft 356 kts 104°
2026-05-06 17:40 50.89150 4.98786 13270 ft 361 kts 104°
2026-05-06 17:40 50.88506 5.02657 14037 ft 366 kts 104°
2026-05-06 17:41 50.87855 5.06582 14754 ft 370 kts 104°
2026-05-06 17:41 50.87196 5.10549 15475 ft 375 kts 105°
2026-05-06 17:41 50.86529 5.14560 16185 ft 379 kts 105°
2026-05-06 17:41 50.85854 5.18626 16898 ft 384 kts 105°
2026-05-06 17:42 50.85171 5.22726 17631 ft 388 kts 106°
2026-05-06 17:42 50.84475 5.26871 18330 ft 392 kts 106°
2026-05-06 17:42 50.83770 5.31050 18958 ft 395 kts 106°
2026-05-06 17:42 50.83057 5.35270 19608 ft 398 kts 106°
2026-05-06 17:43 50.82338 5.39518 20257 ft 401 kts 106°
2026-05-06 17:43 50.81612 5.43791 20910 ft 404 kts 106°
2026-05-06 17:43 50.80880 5.48097 21539 ft 407 kts 106°
2026-05-06 17:43 50.80142 5.52440 22157 ft 410 kts 106°
2026-05-06 17:44 50.79399 5.56804 22762 ft 413 kts 106°
2026-05-06 17:44 50.78647 5.61205 23366 ft 416 kts 106°
2026-05-06 17:44 50.77891 5.65625 23878 ft 418 kts 106°
2026-05-06 17:44 50.77129 5.70065 24382 ft 420 kts 106°
2026-05-06 17:45 50.76361 5.74525 24881 ft 422 kts 106°
2026-05-06 17:45 50.75587 5.78998 25372 ft 424 kts 106°
2026-05-06 17:45 50.74806 5.83499 25861 ft 426 kts 106°
2026-05-06 17:45 50.74019 5.88023 26346 ft 428 kts 107°
2026-05-06 17:46 50.73225 5.92568 26814 ft 430 kts 107°
2026-05-06 17:46 50.72426 5.97132 27277 ft 433 kts 107°
2026-05-06 17:46 50.71637 6.01725 27731 ft 435 kts 104°
2026-05-06 17:46 50.71177 6.06461 28180 ft 439 kts 95°
2026-05-06 17:47 50.71209 6.11293 28602 ft 443 kts 86°
2026-05-06 17:47 50.71746 6.16106 29017 ft 447 kts 76°
2026-05-06 17:47 50.72769 6.20758 29424 ft 451 kts 68°
2026-05-06 17:47 50.74224 6.25164 29828 ft 455 kts 59°
2026-05-06 17:48 50.76098 6.29213 30168 ft 459 kts 50°
2026-05-06 17:48 50.78359 6.32815 30472 ft 463 kts 43°
2026-05-06 17:48 50.80737 6.36264 30844 ft 464 kts 43°
2026-05-06 17:48 50.83111 6.39720 31272 ft 464 kts 43°
2026-05-06 17:49 50.85483 6.43185 31682 ft 464 kts 44°
2026-05-06 17:49 50.87855 6.46658 32096 ft 465 kts 44°
2026-05-06 17:49 50.90225 6.50139 32507 ft 465 kts 44°
2026-05-06 17:49 50.92596 6.53625 32941 ft 465 kts 44°
2026-05-06 17:50 50.94993 6.57151 33369 ft 466 kts 44°
2026-05-06 17:50 50.97348 6.60616 33776 ft 466 kts 44°
2026-05-06 17:50 50.99726 6.64119 34136 ft 467 kts 44°
2026-05-06 17:50 51.02066 6.67704 34478 ft 467 kts 48°
2026-05-06 17:51 51.04109 6.71702 34800 ft 467 kts 54°
2026-05-06 17:51 51.06062 6.75831 35122 ft 468 kts 54°
2026-05-06 17:51 51.08020 6.79967 35434 ft 469 kts 54°
2026-05-06 17:51 51.09984 6.84108 35737 ft 469 kts 54°
2026-05-06 17:52 51.11955 6.88258 36024 ft 470 kts 54°
2026-05-06 17:52 51.13926 6.92416 36308 ft 471 kts 54°
2026-05-06 17:52 51.15894 6.96582 36591 ft 471 kts 54°
2026-05-06 17:52 51.17866 7.00767 36881 ft 472 kts 54°
2026-05-06 17:53 51.19834 7.04955 37155 ft 472 kts 54°
2026-05-06 17:53 51.21798 7.09144 37425 ft 473 kts 54°
2026-05-06 17:53 51.23770 7.13365 37691 ft 474 kts 54°
2026-05-06 17:53 51.25735 7.17579 37951 ft 474 kts 54°
2026-05-06 17:54 51.27707 7.21808 38205 ft 474 kts 54°
2026-05-06 17:54 51.29674 7.26035 38455 ft 475 kts 54°
2026-05-06 17:54 51.31645 7.30277 38662 ft 475 kts 54°
2026-05-06 17:54 51.33614 7.34526 38821 ft 476 kts 54°
2026-05-06 17:55 51.37377 7.43246 38871 ft 476 kts 63°
2026-05-06 17:55 51.40270 7.52768 38867 ft 476 kts 65°
2026-05-06 17:56 51.43129 7.62326 38863 ft 476 kts 65°
2026-05-06 17:56 51.45987 7.71905 38870 ft 476 kts 65°
2026-05-06 17:57 51.48835 7.81501 38867 ft 477 kts 65°
2026-05-06 17:57 51.51686 7.91122 38871 ft 477 kts 65°
2026-05-06 17:58 51.54532 8.00757 38869 ft 478 kts 65°
2026-05-06 17:58 51.57373 8.10409 38872 ft 478 kts 66°
2026-05-06 17:59 51.60204 8.20089 38862 ft 479 kts 66°
2026-05-06 17:59 51.63025 8.29791 38857 ft 479 kts 66°
2026-05-06 18:00 51.65844 8.39516 38851 ft 479 kts 66°
2026-05-06 18:00 51.68661 8.49250 38850 ft 480 kts 66°
2026-05-06 18:01 51.71472 8.58998 38851 ft 479 kts 66°
2026-05-06 18:01 51.74268 8.68765 38849 ft 480 kts 66°
2026-05-06 18:02 51.77055 8.78556 38850 ft 480 kts 66°
2026-05-06 18:02 51.79844 8.88362 38851 ft 480 kts 66°
2026-05-06 18:03 51.82627 8.98181 38841 ft 481 kts 66°
2026-05-06 18:03 51.85407 9.08026 38838 ft 483 kts 66°
2026-05-06 18:04 51.87711 9.16277 38851 ft 484 kts 69°
2026-05-06 18:04 51.89428 9.26739 38848 ft 480 kts 82°
2026-05-06 18:05 51.90631 9.37367 38844 ft 480 kts 81°
2026-05-06 18:05 51.91837 9.47985 38838 ft 479 kts 81°
2026-05-06 18:06 51.93039 9.58594 38831 ft 479 kts 82°
2026-05-06 18:06 51.94227 9.69208 38831 ft 479 kts 82°
2026-05-06 18:07 51.95397 9.79835 38827 ft 479 kts 82°
2026-05-06 18:07 51.96565 9.90474 38825 ft 479 kts 82°
2026-05-06 18:08 51.97723 10.01129 38824 ft 480 kts 82°
2026-05-06 18:08 51.98873 10.11791 38821 ft 480 kts 82°
2026-05-06 18:09 52.00016 10.22460 38819 ft 480 kts 82°
2026-05-06 18:09 52.01152 10.33143 38818 ft 480 kts 82°
2026-05-06 18:10 52.02276 10.43836 38815 ft 481 kts 83°
2026-05-06 18:10 52.03383 10.54543 38823 ft 481 kts 83°
2026-05-06 18:11 52.04483 10.65262 38821 ft 481 kts 83°
2026-05-06 18:11 52.05579 10.75982 38824 ft 481 kts 83°
2026-05-06 18:12 52.06669 10.86717 38827 ft 481 kts 83°
2026-05-06 18:12 52.07745 10.97452 38826 ft 481 kts 83°
2026-05-06 18:13 52.08808 11.08191 38829 ft 481 kts 83°
2026-05-06 18:13 52.09862 11.18936 38831 ft 481 kts 83°
2026-05-06 18:14 52.10907 11.29678 38828 ft 481 kts 83°
2026-05-06 18:14 52.11941 11.40447 38826 ft 481 kts 84°
2026-05-06 18:15 52.12964 11.51200 38823 ft 481 kts 84°
2026-05-06 18:15 52.13982 11.61969 38830 ft 481 kts 84°
2026-05-06 18:16 52.14991 11.72744 38817 ft 481 kts 84°
2026-05-06 18:16 52.15987 11.83527 38824 ft 481 kts 84°
2026-05-06 18:17 52.16802 11.94326 38817 ft 480 kts 87°
2026-05-06 18:17 52.17397 12.05154 38820 ft 480 kts 88°
2026-05-06 18:18 52.17958 12.15998 38825 ft 481 kts 88°
2026-05-06 18:18 52.18562 12.26854 38817 ft 481 kts 88°
2026-05-06 18:19 52.19191 12.37719 38823 ft 482 kts 88°
2026-05-06 18:19 52.19813 12.48587 38827 ft 481 kts 88°
2026-05-06 18:20 52.20406 12.59384 38824 ft 481 kts 88°
2026-05-06 18:20 52.20981 12.70240 38812 ft 481 kts 88°
2026-05-06 18:21 52.21548 12.81111 38817 ft 481 kts 88°
2026-05-06 18:21 52.22115 12.91981 38815 ft 481 kts 88°
2026-05-06 18:22 52.22668 13.02869 38822 ft 482 kts 88°
2026-05-06 18:22 52.23213 13.13773 38828 ft 482 kts 88°
2026-05-06 18:23 52.23756 13.24685 38836 ft 483 kts 88°
2026-05-06 18:23 52.24285 13.35606 38842 ft 483 kts 89°
2026-05-06 18:24 52.24806 13.46550 38844 ft 484 kts 88°
2026-05-06 18:24 52.25319 13.57492 38847 ft 484 kts 89°
2026-05-06 18:25 52.25816 13.68451 38848 ft 484 kts 89°
2026-05-06 18:25 52.26302 13.79412 38847 ft 484 kts 89°
2026-05-06 18:26 52.26775 13.90376 38845 ft 485 kts 89°
2026-05-06 18:26 52.27244 14.01344 38848 ft 484 kts 89°
2026-05-06 18:27 52.27702 14.12322 38843 ft 484 kts 89°
2026-05-06 18:27 52.28141 14.23283 38846 ft 484 kts 89°
2026-05-06 18:28 52.28580 14.34232 38843 ft 483 kts 89°
2026-05-06 18:28 52.29013 14.45181 38841 ft 483 kts 89°
2026-05-06 18:29 52.29425 14.56124 38843 ft 483 kts 89°
2026-05-06 18:29 52.29832 14.67068 38836 ft 483 kts 89°
2026-05-06 18:30 52.30224 14.78015 38841 ft 483 kts 90°
2026-05-06 18:30 52.30604 14.88973 38841 ft 483 kts 90°
2026-05-06 18:31 52.30979 14.99924 38841 ft 483 kts 90°
2026-05-06 18:31 52.31347 15.10888 38836 ft 483 kts 90°
2026-05-06 18:32 52.31707 15.21860 38836 ft 483 kts 90°
2026-05-06 18:32 52.32050 15.32830 38842 ft 483 kts 90°
2026-05-06 18:33 52.32387 15.43796 38841 ft 483 kts 90°
2026-05-06 18:33 52.32708 15.54775 38841 ft 484 kts 90°
2026-05-06 18:34 52.33020 15.65772 38842 ft 484 kts 90°
2026-05-06 18:34 52.33324 15.76778 38844 ft 485 kts 90°
2026-05-06 18:35 52.33612 15.87784 38845 ft 485 kts 90°
2026-05-06 18:35 52.33896 15.98800 38841 ft 485 kts 90°
2026-05-06 18:36 52.34175 16.09819 38840 ft 485 kts 90°
2026-05-06 18:36 52.34443 16.20839 38835 ft 485 kts 90°
2026-05-06 18:37 52.34652 16.29995 38830 ft 485 kts 91°
2026-05-06 18:37 52.34937 16.42875 38825 ft 485 kts 91°
2026-05-06 18:38 52.35170 16.53900 38817 ft 485 kts 91°
2026-05-06 18:38 52.35394 16.64943 38819 ft 486 kts 91°
2026-05-06 18:39 52.35609 16.75986 38822 ft 486 kts 91°
2026-05-06 18:40 52.35909 16.92562 38820 ft 486 kts 91°
2026-05-06 18:40 52.36095 17.03621 38820 ft 486 kts 91°
2026-05-06 18:41 52.36270 17.14684 38823 ft 487 kts 91°
2026-05-06 18:41 52.36432 17.25753 38825 ft 487 kts 91°
2026-05-06 18:42 52.36597 17.36838 38823 ft 487 kts 91°
2026-05-06 18:42 52.36746 17.47920 38822 ft 487 kts 91°
2026-05-06 18:43 52.36877 17.59007 38818 ft 487 kts 91°
2026-05-06 18:43 52.36999 17.70086 38557 ft 487 kts 91°
2026-05-06 18:43 52.37058 17.75625 38299 ft 487 kts 91°
2026-05-06 18:44 52.37118 17.81164 38010 ft 487 kts 91°
2026-05-06 18:44 52.37175 17.86699 37729 ft 487 kts 92°
2026-05-06 18:44 52.37230 17.92250 37452 ft 488 kts 92°
2026-05-06 18:44 52.37279 17.97787 37061 ft 490 kts 92°
2026-05-06 18:45 52.37325 18.03363 36495 ft 489 kts 92°
2026-05-06 18:45 52.37369 18.08920 35952 ft 489 kts 92°
2026-05-06 18:45 52.37410 18.14483 35413 ft 489 kts 92°
2026-05-06 18:45 52.37435 18.18174 35065 ft 489 kts 93°
2026-05-06 18:46 52.37468 18.23739 34545 ft 490 kts 93°
2026-05-06 18:46 52.37499 18.29315 34047 ft 491 kts 93°
2026-05-06 18:46 52.37530 18.34915 33506 ft 492 kts 93°
2026-05-06 18:46 52.37560 18.40514 32923 ft 492 kts 93°
2026-05-06 18:47 52.37588 18.46123 32405 ft 492 kts 94°
2026-05-06 18:47 52.37613 18.51731 32128 ft 493 kts 94°
2026-05-06 18:47 52.37635 18.57348 31864 ft 494 kts 94°
2026-05-06 18:47 52.37655 18.62966 31603 ft 494 kts 94°
2026-05-06 18:48 52.37672 18.68594 31344 ft 494 kts 94°
2026-05-06 18:48 52.37684 18.74212 31083 ft 494 kts 94°
2026-05-06 18:48 52.37691 18.79843 30830 ft 495 kts 94°
2026-05-06 18:48 52.37696 18.85473 30575 ft 495 kts 94°
2026-05-06 18:49 52.37700 18.91104 30316 ft 495 kts 94°
2026-05-06 18:49 52.37705 18.96714 29206 ft 494 kts 94°
2026-05-06 18:49 52.37709 19.02328 28053 ft 489 kts 94°
2026-05-06 18:49 52.37716 19.07805 27308 ft 475 kts 94°
2026-05-06 18:50 52.37719 19.13151 26517 ft 464 kts 94°
2026-05-06 18:50 52.37715 19.18385 25751 ft 455 kts 94°
2026-05-06 18:50 52.37705 19.23511 25006 ft 448 kts 94°
2026-05-06 18:50 52.37686 19.28602 24266 ft 447 kts 94°
2026-05-06 18:51 52.37586 19.33623 23982 ft 434 kts 97°
2026-05-06 18:51 52.37374 19.38507 23896 ft 431 kts 99°
2026-05-06 18:51 52.37083 19.43388 23805 ft 431 kts 100°
2026-05-06 18:51 52.36759 19.48257 23718 ft 431 kts 101°
2026-05-06 18:52 52.36433 19.53129 23622 ft 431 kts 100°
2026-05-06 18:52 52.36123 19.57975 23534 ft 430 kts 100°
2026-05-06 18:52 52.35831 19.62848 23444 ft 430 kts 99°
2026-05-06 18:52 52.35555 19.67717 23350 ft 430 kts 99°
2026-05-06 18:53 52.35284 19.72644 23249 ft 429 kts 99°
2026-05-06 18:53 52.35021 19.77439 23145 ft 428 kts 99°
2026-05-06 18:53 52.34748 19.82291 23035 ft 428 kts 99°
2026-05-06 18:53 52.34471 19.87126 22927 ft 427 kts 99°
2026-05-06 18:54 52.34191 19.91951 22819 ft 426 kts 99°
2026-05-06 18:54 52.33908 19.96767 22432 ft 426 kts 99°
2026-05-06 18:54 52.33622 20.01580 21774 ft 425 kts 99°
2026-05-06 18:54 52.33328 20.06449 21140 ft 424 kts 100°
2026-05-06 18:55 52.33040 20.11184 20536 ft 424 kts 100°
2026-05-06 18:55 52.32752 20.15966 19967 ft 422 kts 99°
2026-05-06 18:55 52.32459 20.20793 19384 ft 420 kts 100°
2026-05-06 18:55 52.32173 20.25467 18836 ft 418 kts 100°
2026-05-06 18:56 52.31874 20.30249 18267 ft 416 kts 100°
2026-05-06 18:56 52.31580 20.34875 17671 ft 414 kts 100°
2026-05-06 18:56 52.31281 20.39539 17102 ft 411 kts 100°
2026-05-06 18:56 52.30990 20.44090 16543 ft 407 kts 99°
2026-05-06 18:57 52.30689 20.48814 15933 ft 405 kts 99°
2026-05-06 18:57 52.30403 20.53305 15354 ft 402 kts 99°
2026-05-06 18:57 52.30113 20.57829 14750 ft 400 kts 99°
2026-05-06 18:57 52.29821 20.62331 14138 ft 397 kts 99°